Location: Cazavet
(43.0017°N, 1.0431°E)
Time: 23:18:04
(UTC+00:00)

SKYMED 2 - Pass Details

Date: 18 January 2026
Orbit: 622 x 624 km, 97.9° (Epoch: 13 February)

Event Time Altitude Azimuth Distance (km) Brightness Sun altitude
Rises 05:21:21 0° 175° (S) 2,890 7.2 -21.9°
Reaches altitude 10° 05:23:33 10° 179° (S) 1,988 6.3 -21.5°
Maximum altitude 05:27:49 60° 259° (W) 715 3.5 -20.7°
Enters shadow 05:28:39 50° 306° (NW) 801 3.7 -20.5°
